Location: Howell Woods
(35.3600°N, 78.2900°W)
Time: 17:03:00
(UTC-05:00)

ISS - Pass Details

Date: 07 December 2021
Orbit: 413 x 422 km, 51.6° (Epoch: 28 January)

Event Time Altitude Azimuth Distance (km) Brightness Sun altitude
Rises 18:53:25 0° 303° (WNW) 2,376 0.7 -22.4°
Reaches altitude 10° 18:55:38 10° 294° (WNW) 1,506 -0.2 -22.9°
Maximum altitude 18:58:44 34° 228° (SW) 716 -2.2 -23.5°
Enters shadow 18:59:18 31° 205° (SSW) 756 -2.2 -23.6°
